Location: Pian di Sc�
(43.6333°N, 11.5500°E)
Time: 09:07:28
(UTC+00:00)

CZ-4C R/B - Pass Details

Date: 07 August 2020
Orbit: 465 x 635 km, 98.0° (Epoch: 18 September)

Event Time Altitude Azimuth Distance (km) Brightness Sun altitude
Exits shadow 01:04:13 34° 349° (N) 798 4.5 -25.4°
Drops below altitude 10° 01:06:18 10° 348° (NNW) 1,646 6.4 -25.3°
Sets 01:08:23 0° 348° (NNW) 2,543 7.4 -25.1°
